Time,TemperatureF,DewpointF,PressureIn,WindDirection,WindDirectionDegrees,WindSpeedMPH,WindSpeedGustMPH,Humidity,HourlyPrecipIn,Conditions,Clouds,dailyrainin,SoftwareType,DateUTC
2012-06-15 00:05:00,64.2,35.0,29.74,North,357,0.0,3.0,34,0.00,,,0.00,weatherlink.com 1.10,2012-06-15 07:05:00,
2012-06-15 00:20:00,61.6,31.0,29.73,North,6,1.0,2.0,32,0.00,,,0.00,weatherlink.com 1.10,2012-06-15 07:20:00,
2012-06-15 00:35:00,63.7,28.0,29.73,NNE,14,1.0,3.0,26,0.00,,,0.00,weatherlink.com 1.10,2012-06-15 07:35:00,
2012-06-15 00:50:00,61.7,27.0,29.73,North,353,0.0,1.0,27,0.00,,,0.00,weatherlink.com 1.10,2012-06-15 07:50:00,
2012-06-15 01:05:00,58.9,26.0,29.73,NE,54,0.0,1.0,28,0.00,,,0.00,weatherlink.com 1.10,2012-06-15 08:05:00,
2012-06-15 01:20:00,56.1,26.0,29.73,NNE,18,0.0,1.0,31,0.00,,,0.00,weatherlink.com 1.10,2012-06-15 08:20:00,
2012-06-15 01:35:00,57.3,27.0,29.73,NNE,15,2.0,4.0,32,0.00,,,0.00,weatherlink.com 1.10,2012-06-15 08:35:00,
2012-06-15 01:50:00,54.0,23.0,29.73,North,359,1.0,3.0,30,0.00,,,0.00,weatherlink.com 1.10,2012-06-15 08:50:00,
2012-06-15 02:05:00,53.4,21.0,29.73,NNE,18,3.0,3.0,28,0.00,,,0.00,weatherlink.com 1.10,2012-06-15 09:05:00,
2012-06-15 02:20:00,54.8,17.0,29.72,North,358,0.0,2.0,23,0.00,,,0.00,weatherlink.com 1.10,2012-06-15 09:20:00,
2012-06-15 02:35:00,54.7,19.0,29.72,North,9,0.0,1.0,25,0.00,,,0.00,weatherlink.com 1.10,2012-06-15 09:35:00,
2012-06-15 02:50:00,55.5,16.0,29.72,NNE,13,1.0,1.0,21,0.00,,,0.00,weatherlink.com 1.10,2012-06-15 09:50:00,
2012-06-15 03:05:00,57.2,15.0,29.72,NNE,16,1.0,2.0,19,0.00,,,0.00,weatherlink.com 1.10,2012-06-15 10:05:00,
2012-06-15 03:20:00,57.9,13.0,29.72,North,8,1.0,2.0,17,0.00,,,0.00,weatherlink.com 1.10,2012-06-15 10:20:00,
2012-06-15 03:35:00,57.4,18.0,29.71,NNE,20,2.0,2.0,21,0.00,,,0.00,weatherlink.com 1.10,2012-06-15 10:35:00,
2012-06-15 03:50:00,54.5,14.0,29.71,NNE,19,1.0,2.0,20,0.00,,,0.00,weatherlink.com 1.10,2012-06-15 10:50:00,
2012-06-15 04:05:00,57.0,12.0,29.71,NNE,19,2.0,2.0,17,0.00,,,0.00,weatherlink.com 1.10,2012-06-15 11:05:00,
2012-06-15 04:20:00,53.9,16.0,29.71,NNE,18,0.0,1.0,22,0.00,,,0.00,weatherlink.com 1.10,2012-06-15 11:20:00,
2012-06-15 04:35:00,56.0,12.0,29.71,NNE,18,1.0,3.0,17,0.00,,,0.00,weatherlink.com 1.10,2012-06-15 11:35:00,
2012-06-15 04:50:00,59.6,14.0,29.71,NNE,12,0.0,-999.0,17,-99.99,,,0.00,weatherlink.com 1.10,2012-06-15 11:50:00,
2012-06-15 05:06:00,60.5,25.0,29.72,NNE,21,1.0,3.0,26,0.00,,,0.00,weatherlink.com 1.10,2012-06-15 12:06:00,
2012-06-15 05:21:00,58.3,21.0,29.72,NNE,25,1.0,3.0,24,0.00,,,0.00,weatherlink.com 1.10,2012-06-15 12:21:00,
2012-06-15 05:36:00,56.8,24.0,29.72,NNE,16,0.0,1.0,28,0.00,,,0.00,weatherlink.com 1.10,2012-06-15 12:36:00,
2012-06-15 05:51:00,59.0,24.0,29.72,North,360,1.0,3.0,26,0.00,,,0.00,weatherlink.com 1.10,2012-06-15 12:51:00,
2012-06-15 06:06:00,63.0,25.0,29.72,North,359,1.0,5.0,24,0.00,,,0.00,weatherlink.com 1.10,2012-06-15 13:06:00,
2012-06-15 06:21:00,63.1,27.0,29.72,North,349,1.0,4.0,26,0.00,,,0.00,weatherlink.com 1.10,2012-06-15 13:21:00,
2012-06-15 06:36:00,63.2,28.0,29.72,North,6,1.0,3.0,26,0.00,,,0.00,weatherlink.com 1.10,2012-06-15 13:36:00,
2012-06-15 06:51:00,62.8,30.0,29.72,NNE,23,0.0,4.0,29,0.00,,,0.00,weatherlink.com 1.10,2012-06-15 13:51:00,
2012-06-15 07:06:00,58.7,30.0,29.73,North,5,2.0,2.0,34,0.00,,,0.00,weatherlink.com 1.10,2012-06-15 14:06:00,
2012-06-15 07:21:00,61.4,34.0,29.73,NNE,25,1.0,3.0,36,0.00,,,0.00,weatherlink.com 1.10,2012-06-15 14:21:00,
2012-06-15 07:36:00,63.4,36.0,29.73,North,11,0.0,1.0,37,0.00,,,0.00,weatherlink.com 1.10,2012-06-15 14:36:00,
2012-06-15 07:51:00,65.0,40.0,29.73,NE,40,1.0,2.0,40,0.00,,,0.00,weatherlink.com 1.10,2012-06-15 14:51:00,
2012-06-15 08:06:00,66.6,37.0,29.73,ENE,63,0.0,1.0,34,0.00,,,0.00,weatherlink.com 1.10,2012-06-15 15:06:00,
2012-06-15 08:21:00,67.8,31.0,29.73,ESE,113,1.0,2.0,25,0.00,,,0.00,weatherlink.com 1.10,2012-06-15 15:21:00,
2012-06-15 08:36:00,70.0,29.0,29.73,East,101,0.0,2.0,22,0.00,,,0.00,weatherlink.com 1.10,2012-06-15 15:36:00,
2012-06-15 08:51:00,69.7,30.0,29.73,SE,129,0.0,1.0,23,0.00,,,0.00,weatherlink.com 1.10,2012-06-15 15:51:00,
2012-06-15 09:06:00,69.4,34.0,29.74,SW,218,1.0,3.0,27,0.00,,,0.00,weatherlink.com 1.10,2012-06-15 16:06:00,
2012-06-15 09:21:00,69.2,37.0,29.74,SSW,212,0.0,3.0,31,0.00,,,0.00,weatherlink.com 1.10,2012-06-15 16:21:00,
2012-06-15 09:36:00,68.9,39.0,29.74,SW,222,0.0,2.0,33,0.00,,,0.00,weatherlink.com 1.10,2012-06-15 16:36:00,
2012-06-15 09:51:00,69.4,43.0,29.74,SSW,208,0.0,3.0,39,0.00,,,0.00,weatherlink.com 1.10,2012-06-15 16:51:00,
2012-06-15 10:06:00,69.7,44.0,29.74,SSW,212,0.0,2.0,39,0.00,,,0.00,weatherlink.com 1.10,2012-06-15 17:06:00,
2012-06-15 10:21:00,70.7,46.0,29.73,SSW,209,0.0,2.0,41,0.00,,,0.00,weatherlink.com 1.10,2012-06-15 17:21:00,
2012-06-15 10:36:00,71.6,47.0,29.74,SSW,207,0.0,2.0,42,0.00,,,0.00,weatherlink.com 1.10,2012-06-15 17:36:00,
2012-06-15 10:51:00,72.0,47.0,29.74,SSW,210,0.0,3.0,41,0.00,,,0.00,weatherlink.com 1.10,2012-06-15 17:51:00,
2012-06-15 11:06:00,72.8,49.0,29.74,SSW,207,1.0,3.0,43,0.00,,,0.00,weatherlink.com 1.10,2012-06-15 18:06:00,
2012-06-15 11:21:00,74.0,51.0,29.74,SSW,207,3.0,3.0,45,0.00,,,0.00,weatherlink.com 1.10,2012-06-15 18:21:00,
2012-06-15 11:36:00,74.4,50.0,29.74,SSW,211,2.0,5.0,42,0.00,,,0.00,weatherlink.com 1.10,2012-06-15 18:36:00,
2012-06-15 11:51:00,74.8,52.0,29.74,SSW,210,3.0,5.0,45,0.00,,,0.00,weatherlink.com 1.10,2012-06-15 18:51:00,
2012-06-15 12:06:00,75.5,50.0,29.74,SW,214,0.0,3.0,41,0.00,,,0.00,weatherlink.com 1.10,2012-06-15 19:06:00,
2012-06-15 12:21:00,76.2,51.0,29.74,SSW,203,1.0,5.0,42,0.00,,,0.00,weatherlink.com 1.10,2012-06-15 19:21:00,
2012-06-15 12:36:00,77.8,52.0,29.74,SSW,197,1.0,4.0,40,0.00,,,0.00,weatherlink.com 1.10,2012-06-15 19:36:00,
2012-06-15 12:52:00,78.8,52.0,29.74,SSW,211,1.0,4.0,40,0.00,,,0.00,weatherlink.com 1.10,2012-06-15 19:52:00,
2012-06-15 13:07:00,78.1,52.0,29.73,SW,225,3.0,4.0,40,0.00,,,0.00,weatherlink.com 1.10,2012-06-15 20:07:00,
2012-06-15 13:22:00,78.0,52.0,29.73,SW,217,0.0,4.0,41,0.00,,,0.00,weatherlink.com 1.10,2012-06-15 20:22:00,
2012-06-15 13:37:00,78.3,53.0,29.73,SSW,207,0.0,4.0,41,0.00,,,0.00,weatherlink.com 1.10,2012-06-15 20:37:00,
2012-06-15 13:52:00,79.4,53.0,29.73,SSE,156,0.0,6.0,40,0.00,,,0.00,weatherlink.com 1.10,2012-06-15 20:52:00,
2012-06-15 14:07:00,80.4,53.0,29.72,SSW,198,2.0,4.0,39,0.00,,,0.00,weatherlink.com 1.10,2012-06-15 21:07:00,
2012-06-15 14:22:00,78.9,53.0,29.72,SSW,196,2.0,5.0,40,0.00,,,0.00,weatherlink.com 1.10,2012-06-15 21:22:00,
2012-06-15 14:38:00,79.6,52.0,29.72,ESE,107,0.0,4.0,39,0.00,,,0.00,weatherlink.com 1.10,2012-06-15 21:38:00,
2012-06-15 14:52:00,79.0,53.0,29.72,SSW,203,1.0,4.0,40,0.00,,,0.00,weatherlink.com 1.10,2012-06-15 21:52:00,
2012-06-15 15:07:00,78.0,53.0,29.72,SSW,212,1.0,4.0,42,0.00,,,0.00,weatherlink.com 1.10,2012-06-15 22:07:00,
2012-06-15 15:23:00,78.4,53.0,29.71,East,96,0.0,3.0,41,0.00,,,0.00,weatherlink.com 1.10,2012-06-15 22:23:00,
2012-06-15 15:37:00,78.3,52.0,29.71,SW,233,0.0,2.0,40,0.00,,,0.00,weatherlink.com 1.10,2012-06-15 22:37:00,
2012-06-15 15:52:00,77.9,54.0,29.71,SSW,211,1.0,3.0,43,0.00,,,0.00,weatherlink.com 1.10,2012-06-15 22:52:00,
2012-06-15 16:07:00,77.8,53.0,29.70,SSW,210,1.0,3.0,42,0.00,,,0.00,weatherlink.com 1.10,2012-06-15 23:07:00,
2012-06-15 16:22:00,76.4,54.0,29.70,WNW,284,1.0,3.0,46,0.00,,,0.00,weatherlink.com 1.10,2012-06-15 23:22:00,
2012-06-15 16:37:00,75.3,54.0,29.70,WNW,297,0.0,2.0,47,0.00,,,0.00,weatherlink.com 1.10,2012-06-15 23:37:00,
2012-06-15 16:52:00,74.2,54.0,29.70,WNW,302,0.0,4.0,49,0.00,,,0.00,weatherlink.com 1.10,2012-06-15 23:52:00,
2012-06-15 17:07:00,74.4,54.0,29.70,NNE,15,1.0,2.0,50,0.00,,,0.00,weatherlink.com 1.10,2012-06-16 00:07:00,
2012-06-15 17:22:00,72.4,53.0,29.70,NNE,16,0.0,3.0,51,0.00,,,0.00,weatherlink.com 1.10,2012-06-16 00:22:00,
2012-06-15 17:37:00,71.0,53.0,29.70,NW,321,1.0,4.0,53,0.00,,,0.00,weatherlink.com 1.10,2012-06-16 00:37:00,
2012-06-15 17:52:00,69.6,53.0,29.70,NW,307,0.0,2.0,55,0.00,,,0.00,weatherlink.com 1.10,2012-06-16 00:52:00,
2012-06-15 18:07:00,69.5,52.0,29.70,NW,306,2.0,3.0,55,0.00,,,0.00,weatherlink.com 1.10,2012-06-16 01:07:00,
2012-06-15 18:22:00,68.7,52.0,29.70,NNW,331,0.0,2.0,56,0.00,,,0.00,weatherlink.com 1.10,2012-06-16 01:22:00,
2012-06-15 18:37:00,68.1,52.0,29.70,NE,43,0.0,2.0,57,0.00,,,0.00,weatherlink.com 1.10,2012-06-16 01:37:00,
2012-06-15 18:52:00,67.6,52.0,29.70,WNW,301,0.0,1.0,58,0.00,,,0.00,weatherlink.com 1.10,2012-06-16 01:52:00,
2012-06-15 19:07:00,67.3,52.0,29.70,NNE,25,0.0,1.0,59,0.00,,,0.00,weatherlink.com 1.10,2012-06-16 02:07:00,
2012-06-15 19:22:00,66.8,52.0,29.70,NNE,33,0.0,1.0,60,0.00,,,0.00,weatherlink.com 1.10,2012-06-16 02:22:00,
2012-06-15 19:37:00,65.4,53.0,29.70,NNE,30,0.0,1.0,64,0.00,,,0.00,weatherlink.com 1.10,2012-06-16 02:37:00,
2012-06-15 19:52:00,63.7,52.0,29.71,NNE,25,1.0,1.0,66,0.00,,,0.00,weatherlink.com 1.10,2012-06-16 02:52:00,
2012-06-15 20:07:00,62.2,51.0,29.71,NNE,25,0.0,1.0,67,0.00,,,0.00,weatherlink.com 1.10,2012-06-16 03:07:00,
2012-06-15 20:22:00,60.8,51.0,29.71,NNE,20,0.0,1.0,69,0.00,,,0.00,weatherlink.com 1.10,2012-06-16 03:22:00,
2012-06-15 20:37:00,60.2,48.0,29.72,NNE,18,1.0,2.0,65,0.00,,,0.00,weatherlink.com 1.10,2012-06-16 03:37:00,
2012-06-15 20:53:00,60.9,46.0,29.72,NNE,18,1.0,2.0,58,0.00,,,0.00,weatherlink.com 1.10,2012-06-16 03:53:00,
2012-06-15 21:07:00,60.2,42.0,29.72,North,9,1.0,2.0,52,0.00,,,0.00,weatherlink.com 1.10,2012-06-16 04:07:00,
2012-06-15 21:22:00,60.4,42.0,29.73,NNE,20,0.0,2.0,52,0.00,,,0.00,weatherlink.com 1.10,2012-06-16 04:22:00,
2012-06-15 21:37:00,61.0,41.0,29.73,NNE,20,0.0,1.0,48,0.00,,,0.00,weatherlink.com 1.10,2012-06-16 04:37:00,
2012-06-15 21:52:00,60.5,40.0,29.74,NNE,21,1.0,1.0,48,0.00,,,0.00,weatherlink.com 1.10,2012-06-16 04:52:00,
2012-06-15 22:07:00,59.4,39.0,29.75,NNE,13,2.0,2.0,48,0.00,,,0.00,weatherlink.com 1.10,2012-06-16 05:07:00,
2012-06-15 22:22:00,61.4,39.0,29.75,NNE,14,2.0,3.0,44,0.00,,,0.00,weatherlink.com 1.10,2012-06-16 05:22:00,
2012-06-15 22:37:00,61.6,38.0,29.75,NNE,13,2.0,3.0,42,0.00,,,0.00,weatherlink.com 1.10,2012-06-16 05:37:00,
2012-06-15 22:52:00,62.9,35.0,29.75,North,354,1.0,3.0,36,0.00,,,0.00,weatherlink.com 1.10,2012-06-16 05:52:00,
2012-06-15 23:07:00,63.7,35.0,29.75,North,349,1.0,4.0,35,0.00,,,0.00,weatherlink.com 1.10,2012-06-16 06:07:00,
2012-06-15 23:22:00,64.0,31.0,29.75,North,8,2.0,5.0,29,0.00,,,0.00,weatherlink.com 1.10,2012-06-16 06:22:00,
2012-06-15 23:37:00,65.2,32.0,29.75,NNE,17,4.0,4.0,29,0.00,,,0.00,weatherlink.com 1.10,2012-06-16 06:37:00,
2012-06-15 23:52:00,62.2,30.0,29.74,North,349,1.0,2.0,30,0.00,,,0.00,weatherlink.com 1.10,2012-06-16 06:52:00,